Regional Weather Roundup
Issued by NWS

Home | Current Version | Previous Version | Text Only | Print | Product List | Glossary On
Versions: 1 2 3 4 5 6 7 8 9 10 11 12 13 14 15 16 17 18 19 20 21 22 23 24 25 26 27 28 29 30 31 32 33 34 35 36 37 38 39 40 41 42 43 44 45 46 47 48 49 50
000
ASUS43 KMPX 300110
RWRMN
WEATHER ROUNDUP FOR MINNESOTA
NATIONAL WEATHER SERVICE TWIN CITIES/CHANHASSEN MN
800 PM CDT MON JUN 29 2015


NOTE: "FAIR" INDICATES FEW OR NO CLOUDS BELOW 12,000 FEET WITH NO
SIGNIFICANT WEATHER AND/OR OBSTRUCTIONS TO VISIBILITY. N/A MEANS
CURRENT SKY AND/OR WEATHER CONDITIONS ARE NOT AVAILABLE.

MNZ060>063-068>070-300200-
   Twin Cities Metro

CITY           SKY/WX    TMP DP  RH WIND       PRES   REMARKS
TWIN CITIES    CLOUDY    67  61  81 SE6       29.80F HAZE
ST PAUL        CLOUDY    64  61  90 S9        29.81F
CRYSTAL        RAIN      69  63  81 SE6       29.78R
LAKEVILLE      MOCLDY    68  57  68 E14G26    29.82R
EDEN PRAIRIE   MOCLDY    72  58  61 E13       29.80R
SOUTH ST PAUL  TSTM      64  60  86 S5        29.81F
LAKE ELMO      MOCLDY    63  61  94 S5        29.82S
$$
MNZ001>005-007-008-013>017-022>024-027-028-300200-
   Northwest Minnesota

CITY           SKY/WX    TMP DP  RH WIND       PRES   REMARKS
BEMIDJI        PTSUNNY   73  58  59 N9        29.86R
HALLOCK        SUNNY     70  57  64 N9        29.89S
ROSEAU         SUNNY     72  63  73 CALM      29.88S
WARROAD        MOSUNNY   72  63  73 E6        29.88S
THIEF RVR FALL SUNNY     72  59  64 NW8       29.88S
CROOKSTON      SUNNY     72  63  73 N10       29.88S
FOSSTON        SUNNY     70  59  68 NW8       29.87S
DETROIT LAKES  SUNNY     72  64  78 NW9G16    29.89R
MOORHEAD       SUNNY     72  64  78 NW8       29.88R
PARK RAPIDS    MOSUNNY   75  58  55 NW8       29.85R
MAHNOMEN       FAIR      73  62  67 NW10      29.87R
$$
MNZ006-009>011-018-025>026-300200-
   North Central Minnesota

CITY           SKY/WX    TMP DP  RH WIND       PRES   REMARKS
BAUDETTE       SUNNY     71  57  61 N5        29.87S
FLAG ISLAND    SUNNY     73  54  49 N10       29.87S
INTL FALLS     SUNNY     70  56  61 NW7       29.85R
WASKISH        SUNNY     70  57  64 N8        29.87S
BIG FORK       MOSUNNY   70  57  64 N9        29.87R
LONGVILLE      SUNNY     73  55  53 N5        29.84R
GRAND RAPIDS   PTSUNNY   73  57  56 N10G18    29.84R
CRANE LAKE     CLEAR     66  57  72 N5        29.85R
ORR            PTCLDY    68  55  64 CALM      29.82R
COOK           CLEAR     68  55  64 N3        29.85R
WALKER         CLOUDY    73  57  57 N5        29.85R
$$
MNZ012-019>021-037-300200-
   Northeast Minnesota

CITY           SKY/WX    TMP DP  RH WIND       PRES   REMARKS
DULUTH         PTCLDY    72  59  63 N8        29.80R
ELY            CLEAR     66  55  68 N5        29.83R
HIBBING        CLEAR     70  57  63 N9        29.83R
EVELETH        CLEAR     68  55  64 N7        29.84R
DULUTH HARBOR  CLEAR     73  64  73 CALM      29.78R
TWO HARBORS    CLEAR     72  63  73 N2        29.77R
GRAND MARAIS     N/A     63  58  83 N8        29.78S
G MARAIS ARPRT LGT RAIN  57  54  88 N8        29.84S
$$
MNZ029>031-032-039>041-046>048-054>057-064-300200-
   West Central Minnesota

CITY           SKY/WX    TMP DP  RH WIND       PRES   REMARKS
FERGUS FALLS   SUNNY     72  63  73 NW8       29.87R
WHEATON        SUNNY     70  63  78 NW7       29.89R
MORRIS         SUNNY     73  64  73 NW9       29.86R
ALEXANDRIA     SUNNY     73  64  73 NW8       29.87R
ELBOW LAKE     FAIR      72  64  77 NW12      29.87R
WADENA         SUNNY     73  61  64 NW7       29.85R
GLENWOOD       SUNNY     72  64  78 NW9       29.86R
APPLETON       SUNNY     75  64  69 N8        29.85S
BENSON         SUNNY     72  63  73 N7        29.85R
ORTONVILLE     SUNNY     75  64  69 N12       29.87R
MADISON        SUNNY     75  63  64 N7        29.86R
WILLMAR        FAIR      75  66  73 NW9       29.86R
$$
MNZ033>034-036-042>043-049>051-058-059-300200-
   Central Minnesota

CITY           SKY/WX    TMP DP  RH WIND       PRES   REMARKS
ST CLOUD       PTCLDY    70  63  78 W7        29.80R
SAUK CENTRE    FAIR      74  64  69 NW10      29.84R
PAYNESVILLE    SUNNY     71  64  80 W6        29.84R
AITKIN         CLEAR     75  59  57 NW5       29.80R
PINE RIVER       N/A     75  57  53 N7        29.87S
BRAINERD       SUNNY     76  55  48 N12       29.83R
STAPLES        PTSUNNY   75  59  57 N9        29.84R
LONG PRAIRIE   FAIR      72  63  73 W8        29.84R
LITTLE FALLS   SUNNY     77  55  47 N7        29.82R
LITCHFIELD     CLEAR     77  66  69 NW7       29.83R
BUFFALO        PTCLDY    78  64  61 W9        29.80S
MAPLE LAKE     CLEAR     78  67  69 W9        29.81R
$$
MNZ037-044-045-052-053-300200-
   East Central Minnesota

CITY           SKY/WX    TMP DP  RH WIND       PRES   REMARKS
PRINCETON      PTCLDY    73  61  64 CALM      29.81R
MORA           PTCLDY    68  63  83 CALM      29.81R
CAMBRIDGE      PTCLDY    72  59  64 CALM      29.78S
MOOSE LAKE     CLEAR     70  70 100 CALM      29.77S
HINCKLEY       FAIR      70  63  78 CALM      29.79S
CLOQUET        CLEAR     72  57  60 N7        29.80R
MCGREGOR       CLEAR     73  59  60 N7        29.81R
$$
MNZ071>073-080-081-089-090-097-098-300200-
   Southwest Minnesota

CITY           SKY/WX    TMP DP  RH WIND       PRES   REMARKS
MONTEVIDEO     SUNNY     73  63  68 N9        29.86R
GRANITE FALLS  SUNNY     74  65  74 NW5       29.86R
CANBY          SUNNY     74  65  71 NW5       29.88R
MARSHALL       SUNNY     75  63  64 NW8       29.86S
REDWOOD FALLS  CLEAR     76  63  64 NW10      29.83S
OLIVIA         SUNNY     72  61  68 NW9       29.83S
PIPESTONE      MOSUNNY   75  64  69 W3        29.89F
WINDOM         CLEAR     73  63  68 W6        29.86S
WORTHINGTON    CLEAR     73  61  64 W6        29.88F
JACKSON        CLEAR     75  63  64 W7        29.87S
TRACY          SUNNY     76  64  66 W5        29.87S
SLAYTON        SUNNY     75  61  62 CALM      29.89S
$$
MNZ065>067-074>077-082>085-091>093-300200-
   South Central Minnesota

CITY           SKY/WX    TMP DP  RH WIND       PRES   REMARKS
MANKATO        CLEAR     75  63  64 W7        29.82R
NEW ULM        CLEAR     73  64  73 W8        29.83R
ST JAMES       CLEAR     75  66  73 W6        29.84S
FAIRMONT       CLEAR     75  57  53 W9        29.84S
GLENCOE        CLEAR     77  66  68 W8        29.81R
FARIBAULT      PTCLDY    75  66  73 W7        29.82R
OWATONNA       PTCLDY    75  64  69 W5        29.82S
WASECA         CLEAR     72  64  78 W6        29.84R
ALBERT LEA     CLEAR     75  64  69 W3        29.83R
$$
MNZ078>079-086>088-094>096-300200-
   Southeast Minnesota

CITY           SKY/WX    TMP DP  RH WIND       PRES   REMARKS
ROCHESTER      TSTM      64  58  80 SE5       29.86R
RED WING       TSTM      63  61  94 SW8       29.79F
STANTON        CLOUDY    70  57  64 E10G18    29.81R
DODGE CENTER   MOCLDY    70  57  64 E10       29.86R
WINONA         CLOUDY    63  61  94 NW6       29.83R
AUSTIN         PTCLDY    75  64  69 NW6       29.82S
PRESTON        CLOUDY    62  58  87 S3        29.85F
$$
ABBREVIATIONS USED IN REMARKS
   TC - TEMPERATURES IN CELSIUS
  WCI - WIND CHILL INDEX
   HX - HEAT INDEX
  VSB - VISIBILITY
$$


USA.gov is the U.S. government's official web portal to all federal, state and local government web resources and services.